Location: Novokuznetsk
(53.7500°N, 87.1000°E)
Time: 23:00:33
(UTC+06:00)

ISS - Pass Details

Date: 24 May 2021
Orbit: 417 x 422 km, 51.6° (Epoch: 16 June)

Event Time Altitude Azimuth Distance (km) Brightness Sun altitude
Rises 22:20:51 0° 278° (W) 2,369 0.6 -11.8°
Reaches altitude 10° 22:23:03 10° 269° (W) 1,504 -0.6 -12.0°
Maximum altitude 22:26:09 35° 202° (SSW) 704 -3.0 -12.2°
Enters shadow 22:27:45 22° 151° (SSE) 982 -2.5 -12.3°
